THOR ABLESTAR DEB, 3810

Orbit data source: Space-Track

THOR ABLESTAR DEB, 3810 is space debris in LEO originally from a launch on Fri, 13 Aug 1965 UTC launched from the Air Force Western Test Range (AFWTR). Debris objects in space refer to the collection of defunct objects orbiting the Earth. Examples of debris include non-operational satellites, rocket bodies, and fragments generated from explosions, collisions, or faulty payload assembly.

Loading next visibility...
Identifier
3810, 1965-065P
Orbit
LEO
Country
Flag of USUS
Related business
Manufacturer
Unknown
Mission
Spacecraft
Bus & Motor
Unknown
Mass
Unknown
Launch date (UTC)
1965-08-13 (61 years ago)
Launch vehicle
Unknown
Launch site
Air Force Western Test Range (AFWTR)
Object type
Payload
Rocket body
Debris
Shape & HBR
Unknown shape, 0.1 m
Radar Cross Section
Medium (>0.1 m² and <1 m²)

Expand to show TLE details & history
Last TLE update: 13 hours ago

TLE from 13 hours ago
0 THOR ABLESTAR DEB
1 03810U 65065P   26255.90407302  .00000408  00000-0  59781-3 0  9994
2 03810  90.0034 216.0551 0063797  35.0996  39.3056 13.52268040270730
Epoch: 2026-09-12T21:41Z
TLE epoch observation values (Epoch: 2026-09-12T21:41:51.908Z)
Latitude
74.9271°
Longitude
-101.33013°
Altitude
1,040.215 km
Speed
7.356 km/s
True Right ascension
14h 24m 10s
True Declination
74° 50' 38"
Sunlit
Object was in daylight at epoch
Visualization orbit readout
Latitude
Unknown
Longitude
Unknown
Altitude
Unknown
Speed
Unknown
Apparent Right ascension
Unknown
Apparent Declination
Unknown
Sunlit
N/A
Visualization observer readout
Local Sidereal Time
03:32:38
Azimuth
Unknown
Elevation
Unknown
Doppler factor
Unknown
Orbital elements
Apogee altitude
1,108.431 km
Perigee altitude
1,013.513 km
Semi-major axis
7,439.109 km
Eccentricity
0.00638
Inclination
90.0034°
RAAN
216.0551°
Arg. of periapsis
35.0996°
True anomaly
39.77156°
Mean anomaly
39.3056°
Eccentric anomaly
39.53829°
Mean motion
3.38269 °/min
Orbital period
106.42 mins
BSTAR
0.00059781
Loading maneuver chart data...
Computing Atmospheric mass density...
Loading historical data...
Loading historical data...
Loading historical data...
Loading historical data...
Loading historical data...
Loading historical data...
Loading historical data...

Documentation

Showing up to 5 results
|